Карточка аэропорта UIBB

Внимание!
Информация на этой странице в стадии наполнения.
Если вы не увидели какой-то информации, или заметили неточность - пожалуйста сообщите нам!
Спасибо!
Команда RU-STAFF
Название аэропортаБратск
Название аэропорта (англ.)Bratsk
Превышение1611 ft. (491 m.)
Координаты56°22.236', 101°41.94'
Высота перехода900m
Эшелон переходаQFE>=715mm:FL060; QFE<715=>688:FL070; QFE<688:FL080
Коды ответчика3301-3327
Зона ОрВДИркутск РПИ (UIII)
Данные METARUIBB 230530Z 19003MPS 130V260 9999 SCT033CB 15/07 Q1015 R30/210160 NOSIG RMK QFE718/0958
Проноз погоды (TAF)UIBB 230500Z 2306/2406 20003G08MPS 9999 -SHRA SCT020CB TEMPO 2306/2312 VRB08MPS -TSRA
NOTAMshow/hide NOTAM
AWOS   TABLE

Информация о ВПП


Диспетчерские позиции

Позывной Наименование органа УВД Частота
UIBB_APPБратск-Подход118.1
UIBB_TWRБратск-Вышка121.8



Спутниковое изображение